Weather History for KHUM - October, 2012

Change the Weather History Date:

Wednesday, October 10, 2012

  Actual Average Record
Temperature  
Mean Temperature 71 °F -  
Max Temperature 84 °F 80 °F 92 °F (1959)
Min Temperature 58 °F 59 °F 41 °F (1951)
Cooling Degree Days 6    
Growing Degree Days 21 (Base 50)    
Moisture  
Dew Point 63 °F    
Average Humidity 93    
Maximum Humidity 100    
Minimum Humidity 51    
Precipitation  
Precipitation 0.00 in - - ()
Sea Level Pressure  
Sea Level Pressure 30.11 in    
Wind  
Wind Speed 2 mph (North)    
Max Wind Speed 9 mph    
Max Gust Speed -    
Visibility 6 miles    
Events Fog    
Averages and records for this station are not official NWS values.
T = Trace of Precipitation, MM = Missing Value Source: NWS Daily Summary

Daily Weather History Graph

Daily Weather History Graph

Search for Another Location

Airport or City:

Trip Planner

Search our weather history database for the weather conditions in past years. The results will help you decide how hot, cold, wet, or windy it might be!

Date:

Astronomy

Oct. 10, 2012 Rise Set
Actual Time 7:01 AM CDT 6:37 PM CDT
Civil Twilight 6:37 AM CDT 7:00 PM CDT
Nautical Twilight 6:09 AM CDT 7:28 PM CDT
Astronomical Twilight 5:42 AM CDT 7:56 PM CDT
Moon 2:00 AM CDT (10/10) 3:20 PM CDT (10/10)
Length of Visible Light 12h 23m
Length of Day
11h 35m
Waning Crescent, 27% of the Moon is Illuminated
Oct 10
Waning Crescent
Oct 15
New
Oct 21
First Quarter
Oct 29
Full
Nov 6
Last Quarter

Hourly Weather History & Observations

Time (CDT) Temp. Heat Index Dew Point Humidity Pressure Visibility Wind Dir Wind Speed Gust Speed Precip Events Conditions
12:15 AM 58.6 °F - 58.6 °F 100% 30.06 in 0.2 mi Calm Calm - N/A Fog Fog
12:35 AM 58.5 °F - 58.5 °F 100% 30.06 in 0.8 mi Calm Calm - N/A   Mist
12:55 AM 58.8 °F - 58.8 °F 100% 30.05 in 5.0 mi Calm Calm - N/A   Clear
1:15 AM 58.1 °F - 58.1 °F 100% 30.06 in 3.0 mi Calm Calm - N/A   Scattered Clouds
1:35 AM 59.9 °F - 59.9 °F 100% 30.07 in 7.0 mi Calm Calm - N/A   Scattered Clouds
1:55 AM 59.9 °F - 59.9 °F 100% 30.07 in 5.0 mi Calm Calm - N/A   Mostly Cloudy
2:15 AM 60.8 °F - 60.8 °F 100% 30.07 in 7.0 mi North 3.5 mph - N/A   Mostly Cloudy
2:35 AM 61.2 °F - 61.2 °F 100% 30.07 in 7.0 mi NNW 3.5 mph - N/A   Scattered Clouds
2:55 AM 61.2 °F - 61.2 °F 100% 30.07 in 4.0 mi Calm Calm - N/A   Scattered Clouds
3:15 AM 60.6 °F - 60.6 °F 100% 30.07 in 3.0 mi NNW 3.5 mph - N/A   Clear
3:35 AM 61.7 °F - 61.7 °F 100% 30.08 in 3.0 mi NNW 4.6 mph - N/A   Scattered Clouds
3:55 AM 63.5 °F - 63.5 °F 100% 30.09 in 4.0 mi NNW 3.5 mph - N/A   Mostly Cloudy
4:15 AM 63.0 °F - 63.0 °F 100% 30.09 in 4.0 mi North 3.5 mph - N/A   Mostly Cloudy
4:35 AM 62.6 °F - 62.6 °F 100% 30.09 in 4.0 mi NNW 4.6 mph - N/A   Scattered Clouds
4:55 AM 63.0 °F - 63.0 °F 100% 30.10 in 5.0 mi North 3.5 mph - N/A   Scattered Clouds
5:15 AM 63.5 °F - 63.5 °F 100% 30.10 in 5.0 mi NE 3.5 mph - N/A   Mostly Cloudy
5:35 AM 62.6 °F - 62.6 °F 100% 30.11 in 4.0 mi Calm Calm - N/A   Scattered Clouds
5:49 AM 62.6 °F - 62.6 °F 100% 30.12 in 7.0 mi NNE 4.6 mph - N/A   Clear
5:55 AM 62.1 °F - 62.1 °F 100% 30.11 in 3.0 mi Calm Calm - N/A   Clear
6:50 AM 62.6 °F - 62.6 °F 100% 30.13 in 3.0 mi North 3.5 mph - N/A   Scattered Clouds
7:50 AM 64.4 °F - 64.4 °F 100% 30.14 in 3.0 mi NNE 3.5 mph - N/A   Scattered Clouds
8:50 AM 69.8 °F - 69.8 °F 100% 30.16 in 5.0 mi North 3.5 mph - N/A   Clear
9:48 AM 73.4 °F - 69.8 °F 88% 30.18 in 6.0 mi ENE 5.8 mph - N/A   Clear
11:50 AM 80.6 °F 82.7 °F 66.2 °F 61% 30.16 in 7.0 mi NNW 5.8 mph - N/A   Scattered Clouds
12:50 PM 82.4 °F 83.9 °F 64.4 °F 54% 30.14 in 7.0 mi NNE 5.8 mph - N/A   Clear
1:50 PM 84.2 °F 85.6 °F 64.4 °F 51% - 7.0 mi North 9.2 mph - N/A   Clear
2:50 PM 84.2 °F 85.6 °F 64.4 °F 51% 30.08 in 7.0 mi NE 5.8 mph - N/A   Scattered Clouds
4:10 PM 82.4 °F 83.9 °F 64.4 °F 54% 30.08 in 7.0 mi North 9.2 mph - N/A   Partly Cloudy
5:50 PM 80.6 °F 82.3 °F 64.4 °F 58% 30.09 in 7.0 mi ENE 9.2 mph - N/A   Partly Cloudy
6:50 PM 73.4 °F - 66.2 °F 78% 30.10 in 7.0 mi NE 6.9 mph - N/A   Clear
7:15 PM 71.6 °F - 65.8 °F 82% 30.11 in 10.0 mi Calm Calm - N/A   Clear
7:35 PM 68.4 °F - 66.0 °F 92% 30.11 in 7.0 mi Calm Calm - N/A   Clear
7:55 PM 66.6 °F - 66.2 °F 99% 30.11 in 10.0 mi Calm Calm - N/A   Clear
8:15 PM 66.2 °F - 65.3 °F 97% 30.12 in 10.0 mi Calm Calm - N/A   Clear
8:35 PM 65.3 °F - 65.1 °F 99% 30.13 in 10.0 mi Calm Calm - N/A   Clear
8:55 PM 64.8 °F - 64.8 °F 100% 30.14 in 10.0 mi Calm Calm - N/A   Clear
9:15 PM 65.3 °F - 64.9 °F 99% 30.14 in 10.0 mi Calm Calm - N/A   Clear
9:35 PM 64.4 °F - 64.4 °F 100% 30.14 in 10.0 mi Calm Calm - N/A   Clear
9:55 PM 64.2 °F - 64.2 °F 100% 30.15 in 10.0 mi Calm Calm - N/A   Clear
10:15 PM 63.7 °F - 63.7 °F 100% 30.15 in 10.0 mi Calm Calm - N/A   Clear
10:35 PM 63.7 °F - 63.7 °F 100% 30.15 in 10.0 mi Calm Calm - N/A   Clear
10:55 PM 62.8 °F - 62.8 °F 100% 30.15 in 10.0 mi Calm Calm - N/A   Clear
11:15 PM 62.4 °F - 62.4 °F 100% 30.15 in 10.0 mi Calm Calm - N/A   Clear
11:35 PM 63.1 °F - 63.1 °F 100% 30.15 in 10.0 mi Calm Calm - N/A   Clear
11:55 PM 61.9 °F - 61.9 °F 100% 30.15 in 10.0 mi Calm Calm - N/A   Clear